Location: Unspecified
(0.0000°N, 0.0000°E)
Time: 08:32:35
(UTC+00:00)

XW-2C - Pass Details

Date: 25 May 2021
Orbit: 506 x 525 km, 97.5° (Epoch: 17 June)

Event Time Altitude Azimuth Distance (km) Brightness Sun altitude
Rises 05:14:53 0° 23° (NNE) 2,622 ? -9.8°
Reaches altitude 10° 05:17:03 10° 30° (NNE) 1,735 ? -9.3°
Maximum altitude 05:20:36 41° 101° (E) 748 ? -8.5°
Drops below altitude 10° 05:24:08 10° 172° (S) 1,732 ? -7.7°
Sets 05:26:18 0° 180° (S) 2,617 ? -7.2°
